Location: Oberwangen
(47.4286°N, 8.9679°E)
Time: 14:47:56
(UTC+00:00)

H-2A R/B - Pass Details

Date: 20 June 2021
Orbit: 574 x 597 km, 98.2° (Epoch: 03 August)

Event Time Altitude Azimuth Distance (km) Brightness Sun altitude
Rises 20:51:54 0° 22° (NNE) 2,797 7.4 -11.1°
Reaches altitude 10° 20:54:13 10° 32° (NNE) 1,893 6.4 -11.3°
Maximum altitude 20:57:57 33° 97° (E) 971 4.2 -11.7°
Enters shadow 21:00:25 18° 152° (SSE) 1,443 4.8 -11.9°
